Weather History for Juliana Airport, St. Martin

Change the Weather History Date:

Thursday, August 22, 2013

  Actual Average Record
Temperature  
Mean Temperature 84 °F -  
Max Temperature 87 °F 87 °F 91 °F (2004)
Min Temperature 82 °F 78 °F 75 °F (1999)
Cooling Degree Days 20    
Growing Degree Days 34 (Base 50)    
Moisture  
Dew Point 76 °F    
Average Humidity 75    
Maximum Humidity 89    
Minimum Humidity 63    
Precipitation  
Precipitation 0.03 in 0.16 in - ()
Sea Level Pressure  
Sea Level Pressure 29.95 in    
Wind  
Wind Speed 10 mph ()    
Max Wind Speed 17 mph    
Max Gust Speed 22 mph    
Visibility 7.3 miles    
Events Rain    
Averages and records for this station are not official NWS values.
T = Trace of Precipitation, MM = Missing Value Source: Averaged Metar Reports

Daily Weather History Graph

Daily Weather History Graph

Search for Another Location

Airport:

Trip Planner

Search our weather history database for the weather conditions in past years. The results will help you decide how hot, cold, wet, or windy it might be!

Date:

Astronomy

Aug. 22, 2013 Rise Set
Actual Time 5:56 AM AST 6:33 PM AST
Civil Twilight 5:33 AM AST 6:56 PM AST
Nautical Twilight 5:07 AM AST 7:22 PM AST
Astronomical Twilight 4:41 AM AST 7:48 PM AST
Moon 7:43 PM AST (8/22) 7:16 AM AST (8/22)
Length of Visible Light 13h 22m
Length of Day
12h 37m
Waning Gibbous, 97% of the Moon is Illuminated
Aug 22
Waning Gibbous
Aug 28
Last Quarter
Sep 5
New
Sep 12
First Quarter
Sep 19
Full

Hourly Weather History & Observations

Time (AST) Temp. Heat Index Dew Point Humidity Pressure Visibility Wind Dir Wind Speed Gust Speed Precip Events Conditions
12:00 AM 84.2 °F 92.3 °F 75.2 °F 74% 29.98 in 6.2 mi ENE 12.7 mph - N/A   Scattered Clouds
1:00 AM 82.4 °F 89.5 °F 75.2 °F 79% 29.98 in 6.2 mi ENE 11.5 mph - N/A   Scattered Clouds
2:00 AM 83 °F - 74 °F 68% 29.96 in 19 mi East 10.4 mph - -  
2:00 AM 82.4 °F 88.2 °F 73.4 °F 74% 29.95 in 6.2 mi East 10.4 mph - N/A   Partly Cloudy
3:00 AM 82.4 °F 88.2 °F 73.4 °F 74% 29.92 in 6.2 mi ENE 9.2 mph - N/A   Scattered Clouds
4:00 AM 82.4 °F 89.5 °F 75.2 °F 79% 29.95 in 6.2 mi ENE 9.2 mph - N/A   Partly Cloudy
5:00 AM 82 °F - 73 °F 68% 29.95 in 19 mi East 9.2 mph - -   Scattered Clouds
5:00 AM 82.4 °F 88.2 °F 73.4 °F 74% 29.95 in 6.2 mi East 9.2 mph - N/A   Partly Cloudy
6:00 AM 82.4 °F 88.2 °F 73.4 °F 74% 29.95 in 6.2 mi ENE 9.2 mph - N/A   Partly Cloudy
7:00 AM 82.4 °F 89.5 °F 75.2 °F 79% 29.95 in 6.2 mi ENE 9.2 mph - N/A   Partly Cloudy
8:00 AM 84.2 °F 92.3 °F 75.2 °F 74% 29.98 in 6.2 mi ENE 11.5 mph - N/A   Partly Cloudy
9:00 AM 86.0 °F 95.1 °F 75.2 °F 70% 29.98 in 6.2 mi ENE 10.4 mph - N/A   Partly Cloudy
10:00 AM 87.8 °F 99.7 °F 77.0 °F 70% 29.98 in 6.2 mi ENE 13.8 mph - N/A   Partly Cloudy
11:00 AM 87 °F - 76 °F 63% 30.00 in 25 mi ENE 11.5 mph - - Rain Light Rain Showers
11:00 AM 87.8 °F 97.6 °F 75.2 °F 66% 29.98 in 6.2 mi NE 11.5 mph - N/A Rain Light Rain Showers
12:00 PM 82.4 °F 90.9 °F 77.0 °F 84% 29.98 in 6.2 mi East 13.8 mph - N/A Rain Light Rain Showers
1:00 PM 87.8 °F 99.7 °F 77.0 °F 70% 29.98 in 6.2 mi ENE 11.5 mph - N/A Rain Light Rain Showers
2:00 PM 87 °F - 78 °F 69% 29.96 in 12 mi ENE 12.7 mph - - Rain Light Rain Showers
2:00 PM 86.0 °F 96.9 °F 77.0 °F 74% 29.95 in 6.2 mi ENE 12.7 mph - N/A Rain Light Rain Showers
3:00 PM 87.8 °F 99.7 °F 77.0 °F 70% 29.92 in 6.2 mi ENE 13.8 mph - N/A   Scattered Clouds
4:00 PM 86.0 °F 96.9 °F 77.0 °F 74% 29.92 in 6.2 mi ENE 12.7 mph - N/A   Scattered Clouds
5:00 PM 86 °F - 77 °F 67% 29.94 in 11 mi ENE 12.7 mph - -   Partly Cloudy
5:00 PM 86.0 °F 96.9 °F 77.0 °F 74% 29.92 in 6.2 mi ENE 13.8 mph - N/A   Scattered Clouds
5:24 PM 84.2 °F 94.1 °F 77.0 °F 79% 29.92 in 1.9 mi East 10.4 mph 21.9 mph N/A Rain Rain Showers
6:00 PM 82.4 °F 92.4 °F 78.8 °F 89% 29.92 in 6.2 mi ENE 11.5 mph - N/A   Partly Cloudy
7:00 PM 82.4 °F 90.9 °F 77.0 °F 84% 29.95 in 6.2 mi ENE 12.7 mph - N/A   Mostly Cloudy
8:00 PM 82.4 °F 90.9 °F 77.0 °F 84% 29.95 in 6.2 mi ENE 13.8 mph - N/A   Mostly Cloudy
9:00 PM 82.4 °F 90.9 °F 77.0 °F 84% 29.95 in 6.2 mi East 17.3 mph - N/A   Partly Cloudy
10:00 PM 82.4 °F 89.5 °F 75.2 °F 79% 29.95 in 6.2 mi East 15.0 mph - N/A   Partly Cloudy
11:00 PM 82.4 °F 90.9 °F 77.0 °F 84% 29.95 in 6.2 mi East 10.4 mph - N/A   Scattered Clouds